Terminal Aerodrome Forecast
Issued by NWS

Home | Current Version | Previous Version | Graphics & Text | Print | Product List | Glossary On
Versions: 1 2 3 4 5 6 7 8 9 10 11 12 13 14 15
000
FTUS43 KABR 221200 AAA
TAFPIR
TAF AMD
KPIR 221241Z 2213/2312 32007KT P6SM OVC200
     FM221300 30011KT P6SM VCSH OVC050
      TEMPO 2216/2219 4SM -RA OVC020
     FM222200 VRB05KT P6SM SKC=

USA.gov is the U.S. government's official web portal to all federal, state and local government web resources and services.